Change the Weather History Date:

Saturday, June 2, 2012

  Actual Average Record
Temperature  
Mean Temperature 56 °F -  
Max Temperature 64 °F 73 °F 85 °F (1989)
Min Temperature 48 °F 47 °F 38 °F (1976)
Degree Days  
Heating Degree Days 9    
Growing Degree Days 6 (Base 50)    
Moisture  
Dew Point 44 °F    
Average Humidity 69    
Maximum Humidity 88    
Minimum Humidity 34    
Precipitation  
Precipitation 0.09 in - - ()
Sea Level Pressure  
Sea Level Pressure 29.73 in    
Wind  
Wind Speed 13 mph (SW)    
Max Wind Speed 18 mph    
Max Gust Speed 30 mph    
Visibility 10 miles    
Events Thunderstorm    
Averages and records for this station are not official NWS values.
T = Trace of Precipitation, MM = Missing Value Source: NWS Daily Summary

Daily Weather History Graph

Daily Weather History Graph

Search for Another Location

Airport or City:

Trip Planner

Search our weather history database for the weather conditions in past years. The results will help you decide how hot, cold, wet, or windy it might be!

Date:

Astronomy

Jun. 02, 2012 Rise Set
Actual Time 5:42 AM EDT 8:47 PM EDT
Civil Twilight 5:08 AM EDT 9:21 PM EDT
Nautical Twilight 4:25 AM EDT 10:05 PM EDT
Astronomical Twilight 3:34 AM EDT 10:56 PM EDT
Moon 6:59 PM EDT (6/2) 4:01 AM EDT (6/2)
Length of Visible Light 16h 12m
Length of Day
15h 04m
Waxing Gibbous, 95% of the Moon is Illuminated
Jun 2
Waxing Gibbous
Jun 4
Full
Jun 11
Last Quarter
Jun 19
New
Jun 26
First Quarter

Hourly Weather History & Observations

Time (EDT) Temp. Dew Point Humidity Pressure Visibility Wind Dir Wind Speed Gust Speed Precip Events Conditions
12:15 AM 51.8 °F 48.2 °F 88% 29.68 in 10.0 mi SW 17.3 mph 23.0 mph N/A   Overcast
12:35 AM 51.8 °F 46.4 °F 82% 29.68 in 10.0 mi SW 13.8 mph 21.9 mph N/A   Mostly Cloudy
12:55 AM 51.8 °F 46.4 °F 82% 29.68 in 10.0 mi SW 12.7 mph 19.6 mph N/A   Mostly Cloudy
1:15 AM 51.8 °F 46.4 °F 82% 29.68 in 10.0 mi SW 12.7 mph 23.0 mph N/A   Mostly Cloudy
1:35 AM 51.8 °F 46.4 °F 82% 29.68 in 10.0 mi SW 9.2 mph 19.6 mph N/A   Overcast
1:55 AM 51.8 °F 46.4 °F 82% 29.68 in 10.0 mi SW 10.4 mph - N/A   Overcast
2:15 AM 50.0 °F 46.4 °F 87% 29.68 in 10.0 mi SW 11.5 mph 19.6 mph N/A   Overcast
2:35 AM 50.0 °F 46.4 °F 87% 29.68 in 10.0 mi SW 12.7 mph 20.7 mph N/A   Overcast
2:55 AM 50.0 °F 46.4 °F 87% 29.68 in 10.0 mi SW 11.5 mph 24.2 mph N/A   Overcast
3:15 AM 50.0 °F 44.6 °F 82% 29.67 in 10.0 mi SSW 10.4 mph 18.4 mph N/A   Overcast
3:35 AM 48.2 °F 44.6 °F 87% 29.68 in 10.0 mi SW 10.4 mph 17.3 mph N/A   Overcast
3:55 AM 48.2 °F 44.6 °F 87% 29.68 in 10.0 mi SSW 10.4 mph 17.3 mph N/A   Overcast
4:15 AM 48.2 °F 44.6 °F 87% 29.67 in 10.0 mi SSW 12.7 mph 19.6 mph N/A   Overcast
4:35 AM 48.2 °F 44.6 °F 87% 29.67 in 10.0 mi SSW 12.7 mph 17.3 mph N/A   Mostly Cloudy
4:55 AM 48.2 °F 42.8 °F 82% 29.67 in 10.0 mi SW 13.8 mph 20.7 mph N/A   Scattered Clouds
5:15 AM 48.2 °F 44.6 °F 87% 29.66 in 10.0 mi SW 12.7 mph 19.6 mph N/A   Mostly Cloudy
5:35 AM 48.2 °F 44.6 °F 87% 29.66 in 10.0 mi SSW 9.2 mph 18.4 mph N/A   Overcast
5:55 AM 48.2 °F 44.6 °F 87% 29.67 in 10.0 mi SSW 8.1 mph 16.1 mph N/A   Overcast
6:15 AM 48.2 °F 44.6 °F 87% 29.67 in 9.0 mi SSW 13.8 mph 19.6 mph N/A   Overcast
6:35 AM 48.2 °F 42.8 °F 82% 29.68 in 10.0 mi WSW 15.0 mph 26.5 mph N/A   Overcast
6:55 AM 48.2 °F 41.0 °F 76% 29.69 in 10.0 mi WSW 18.4 mph 23.0 mph N/A   Mostly Cloudy
7:35 AM 48.2 °F 41.0 °F 76% 29.71 in 10.0 mi SW 11.5 mph 20.7 mph N/A   Overcast
7:55 AM 48.2 °F 41.0 °F 76% 29.72 in 10.0 mi SW 12.7 mph 17.3 mph N/A   Overcast
8:15 AM 48.2 °F 41.0 °F 76% 29.73 in 10.0 mi SW 10.4 mph 20.7 mph N/A   Overcast
8:35 AM 48.2 °F 41.0 °F 76% 29.73 in 10.0 mi SW 12.7 mph 20.7 mph N/A   Overcast
8:55 AM 48.2 °F 42.8 °F 82% 29.74 in 9.0 mi SW 9.2 mph - N/A   Overcast
9:15 AM 48.2 °F 41.0 °F 76% 29.74 in 10.0 mi SW 12.7 mph - N/A   Overcast
9:35 AM 51.8 °F 42.8 °F 71% 29.74 in 10.0 mi SSW 15.0 mph 20.7 mph N/A   Overcast
9:55 AM 51.8 °F 42.8 °F 71% 29.75 in 10.0 mi SW 12.7 mph 20.7 mph N/A   Overcast
10:35 AM 50.0 °F 42.8 °F 76% 29.76 in 10.0 mi SW 10.4 mph 18.4 mph N/A   Overcast
10:55 AM 51.8 °F 42.8 °F 71% 29.76 in 10.0 mi WSW 16.1 mph 24.2 mph N/A   Overcast
11:15 AM 53.6 °F 44.6 °F 72% 29.76 in 10.0 mi WSW 15.0 mph 25.3 mph N/A   Overcast
11:35 AM 53.6 °F 42.8 °F 67% 29.76 in 10.0 mi WSW 16.1 mph 21.9 mph N/A   Mostly Cloudy
11:56 AM 55.4 °F 42.8 °F 63% 29.76 in 10.0 mi WSW 17.3 mph 21.9 mph N/A   Overcast
12:15 PM 55.4 °F 42.8 °F 63% 29.76 in 10.0 mi WSW 15.0 mph 27.6 mph N/A   Overcast
12:35 PM 57.2 °F 42.8 °F 59% 29.76 in 10.0 mi SW 16.1 mph 25.3 mph N/A   Overcast
12:55 PM 57.2 °F 42.8 °F 59% 29.76 in 10.0 mi West 11.5 mph 17.3 mph N/A   Mostly Cloudy
1:15 PM 59.0 °F 44.6 °F 59% 29.76 in 10.0 mi WSW 15.0 mph 18.4 mph N/A   Mostly Cloudy
1:35 PM 57.2 °F 42.8 °F 59% 29.76 in 10.0 mi WSW 18.4 mph - N/A   Mostly Cloudy
1:55 PM 60.8 °F 44.6 °F 55% 29.75 in 5.0 mi SW 12.7 mph 20.7 mph N/A   Scattered Clouds
2:35 PM 60.8 °F 42.8 °F 52% 29.74 in 10.0 mi WSW 12.7 mph 19.6 mph N/A   Mostly Cloudy
2:55 PM 62.6 °F 44.6 °F 52% 29.74 in 10.0 mi SW 15.0 mph 23.0 mph N/A   Mostly Cloudy
3:15 PM 60.8 °F 42.8 °F 52% 29.74 in 10.0 mi WSW 16.1 mph 20.7 mph N/A   Overcast
3:35 PM 60.8 °F 44.6 °F 55% 29.74 in 10.0 mi SW 15.0 mph 20.7 mph N/A   Mostly Cloudy
3:55 PM 60.8 °F 44.6 °F 55% 29.74 in 2.5 mi WSW 15.0 mph 21.9 mph N/A   Mostly Cloudy
4:15 PM 62.6 °F 42.8 °F 48% 29.74 in 10.0 mi WSW 17.3 mph 21.9 mph N/A   Mostly Cloudy
4:35 PM 62.6 °F 44.6 °F 52% 29.73 in 10.0 mi WSW 12.7 mph 19.6 mph N/A   Mostly Cloudy
4:55 PM 64.4 °F 42.8 °F 45% 29.73 in 10.0 mi WSW 15.0 mph 24.2 mph N/A   Scattered Clouds
5:15 PM 64.4 °F 39.2 °F 40% 29.73 in 9.0 mi West 15.0 mph 24.2 mph N/A   Scattered Clouds
5:35 PM 64.4 °F 35.6 °F 34% 29.73 in 10.0 mi West 18.4 mph 24.2 mph N/A   Partly Cloudy
5:55 PM 64.4 °F 37.4 °F 37% 29.73 in 10.0 mi West 13.8 mph 29.9 mph N/A   Scattered Clouds
6:15 PM 64.4 °F 37.4 °F 37% 29.73 in 10.0 mi West 15.0 mph 21.9 mph N/A   Scattered Clouds
6:35 PM 62.6 °F 37.4 °F 39% 29.73 in 10.0 mi West 13.8 mph - N/A   Partly Cloudy
6:55 PM 62.6 °F 37.4 °F 39% 29.74 in 10.0 mi SW 12.7 mph 19.6 mph N/A   Scattered Clouds
7:15 PM 57.2 °F 44.6 °F 63% 29.75 in 10.0 mi SW 10.4 mph - N/A   Overcast
7:35 PM 55.4 °F 46.4 °F 72% 29.75 in 10.0 mi SSW 8.1 mph - N/A Thunderstorm Mostly Cloudy
7:55 PM 55.4 °F 44.6 °F 67% 29.75 in 10.0 mi SSW 10.4 mph - N/A   Mostly Cloudy
8:15 PM 55.4 °F 44.6 °F 67% 29.74 in 10.0 mi SSW 8.1 mph - N/A   Mostly Cloudy
8:35 PM 55.4 °F 42.8 °F 63% 29.74 in 10.0 mi SSW 8.1 mph - N/A   Scattered Clouds
8:55 PM 53.6 °F 44.6 °F 72% 29.74 in 10.0 mi SSW 8.1 mph - N/A   Clear
9:15 PM 53.6 °F 44.6 °F 72% 29.74 in 10.0 mi South 10.4 mph - N/A   Clear
9:35 PM 53.6 °F 44.6 °F 72% 29.75 in 10.0 mi South 10.4 mph - N/A   Clear
9:55 PM 53.6 °F 44.6 °F 72% 29.75 in 10.0 mi South 9.2 mph - N/A   Clear
10:15 PM 53.6 °F 44.6 °F 72% 29.75 in 10.0 mi South 9.2 mph - N/A   Clear
10:35 PM 53.6 °F 44.6 °F 72% 29.76 in 10.0 mi South 6.9 mph - N/A   Partly Cloudy
10:55 PM 51.8 °F 42.8 °F 71% 29.76 in 10.0 mi South 9.2 mph - N/A   Mostly Cloudy
11:15 PM 53.6 °F 44.6 °F 72% 29.78 in 10.0 mi West 6.9 mph - N/A   Overcast
11:35 PM 51.8 °F 46.4 °F 82% 29.80 in 10.0 mi WNW 13.8 mph 19.6 mph 0.04 in   Overcast
11:55 PM 51.8 °F 46.4 °F 82% 29.80 in 9.0 mi WSW 11.5 mph - 0.09 in   Mostly Cloudy